SCP
-0 -0 -0 0 0 0 0 0 0 0 0 0 0 0 0 0 0 0 0 0 0 0 0 2 2 0 0 0 0 0 0 0 0 0 0 0 0 0 0 0 0 0 0 0 0 0 0 0 0
-0 -0 0 0 0 0 0 0 0 0 0 0 0 0 0 0 0 0 0 0 0 0 0 1 1 0 0 0 0 0 0 0 0 0 0 0 0 0 0 0 0 0 0 0 0 0 0 0 0
0 0 0 0 0 0 0 0 0 0 0 0 0 0 0 0 0 0 0 0 0 0 0 0 0 1 0 0 0 0 0 0 0 0 0 0 0 0 0 0 0 0 0 0 0 0 0 0 0
0 0 0 0 0 0 0 0 0 0 0 0 0 0 0 0 0 0 0 0 0 0 0 0 0 1 0 0 0 0 0 0 0 0 0 0 0 0 0 0 0 0 0 0 0 0 0 0 0
0 0 0 0 0 0 0 0 0 0 0 0 0 0 0 0 0 0 0 0 0 0 0 0 1 1 1 0 0 0 0 0 0 0 0 0 0 0 0 0 0 0 0 0 0 0 0 0 0
0 0 0 0 0 0 0 0 0 0 0 0 0 0 0 0 0 0 0 0 0 0 0 0 1 1 1 0 0 0 0 0 0 0 0 0 0 0 0 0 0 0 0 0 0 0 0 1 1
0 0 0 0 0 0 0 0 0 0 0 0 0 0 0 0 0 0 0 0 0 0 0 0 0 0 0 0 0 0 0 0 0 0 0 0 0 0 0 0 0 0 0 0 0 0 0 1 1
0 0 0 0 0 0 0 0 0 0 0 0 0 0 0 0 0 0 0 0 0 0 0 0 0 0 0 0 0 0 0 0 0 0 0 0 0 0 0 0 0 0 0 0 0 0 0 1 1
0 0 0 0 0 0 0 0 0 0 0 0 0 0 0 0 0 0 0 0 0 0 0 0 0 0 0 0 0 0 0 0 0 0 0 0 0 0 0 0 0 0 0 0 0 0 0 0 1
0 0 0 0 0 0 0 0 0 0 0 0 0 0 0 0 0 0 0 0 0 0 0 0 0 0 0 0 0 0 0 0 0 0 0 0 0 0 0 0 0 0 0 0 0 0 0 0 1
0 0 0 0 0 0 0 0 0 0 0 0 0 0 0 0 0 0 0 0 0 0 0 0 0 0 0 0 0 0 0 0 0 0 0 0 0 0 0 0 0 0 0 0 0 0 0 0 1
0 0 0 0 0 0 0 0 0 0 0 0 0 0 0 0 0 0 0 0 0 0 0 0 0 0 0 0 0 0 0 0 0 0 0 -0 -0 -0 0 0 0 0 0 0 0 0 0 0 0
0 0 0 0 0 0 0 0 0 0 0 0 0 0 0 0 0 0 0 0 0 0 0 0 0 0 0 0 0 0 0 0 0 0 -0 -0 0 0 0 0 0 0 0 0 0 0 0 0 1
0 0 0 0 0 0 0 0 0 0 0 0 0 0 0 0 0 0 0 0 0 0 0 0 0 0 0 0 0 0 0 0 0 0 0 -0 0 0 0 0 0 0 0 0 0 0 0 0 1
0 0 0 0 0 0 0 0 0 0 0 0 0 0 0 0 0 0 0 0 0 0 0 0 0 0 0 0 0 0 -0 -0 0 0 0 0 0 0 0 0 0 0 0 0 0 0 0 1 1
0 0 0 0 0 0 0 0 0 0 0 0 0 0 0 0 0 0 0 0 0 0 0 0 0 0 0 0 0 0 0 0 0 0 0 0 -0 -0 0 0 0 0 0 0 0 0 0 1 1
0 0 0 0 0 0 0 0 0 0 0 0 0 0 0 0 0 0 0 0 0 0 0 0 0 0 0 0 0 0 0 0 0 0 0 0 0 0 0 0 0 0 0 0 0 0 1 1 1
0 0 0 -0 0 0 0 0 0 0 0 0 0 0 0 0 0 0 0 0 0 0 0 0 0 0 0 0 0 0 0 0 0 0 0 -0 0 0 0 0 0 0 0 0 0 0 0 1 0
0 0 0 0 -0 0 0 0 0 0 0 0 0 0 0 0 0 0 0 0 0 0 0 0 0 0 0 0 0 0 0 0 0 0 0 0 0 0 0 0 0 0 0 0 0 1 0 0 0
0 0 0 -0 -0 0 0 0 0 0 0 0 0 0 0 0 0 0 0 0 0 0 0 0 0 0 0 0 0 0 0 0 0 0 0 0 0 0 0 0 0 0 0 0 0 0 0 0 0
0 0 0 0 0 0 0 0 0 0 0 0 0 0 0 0 0 0 0 0 0 0 0 0 0 0 0 0 0 0 0 0 0 0 0 0 0 0 0 0 0 0 0 0 0 0 0 0 0
0 0 0 0 0 0 0 0 0 0 0 0 0 0 0 0 0 0 0 0 0 0 0 0 0 0 0 0 0 0 0 0 0 0 0 0 0 0 0 0 0 0 0 0 0 0 0 0 0
0 0 0 0 0 0 0 0 0 0 0 0 -0 0 0 0 0 0 0 0 0 0 0 0 0 0 0 0 0 0 0 0 0 0 0 0 0 0 0 0 0 0 0 0 0 0 0 0 0
0 0 0 0 0 0 0 0 0 0 0 0 0 0 -0 0 0 0 0 0 0 0 0 0 0 0 0 0 0 0 0 0 0 0 0 0 0 0 0 0 0 0 0 0 0 0 0 0 0
0 0 0 0 0 0 0 0 -0 -0 -0 -0 -0 -0 -0 0 0 0 0 0 0 0 0 0 0 0 0 0 0 0 0 0 0 0 0 0 0 0 0 0 0 -0 0 0 0 0 0 0 0
0 0 0 0 0 0 0 0 -0 0 -0 0 -0 -0 -0 -0 -0 -0 -0 -0 0 0 0 0 0 0 0 0 -0 -0 -0 0 0 0 0 0 0 0 0 0 0 0 0 0 0 0 0 0 0
0 0 0 0 0 0 0 0 0 0 0 -0 -0 -0 -0 -0 -0 -0 -0 -0 -0 0 0 0 0 0 0 0 0 -0 -0 -0 0 0 0 0 0 0 0 0 0 0 0 0 0 0 0 0 0
0 0 0 0 0 0 0 0 -0 0 0 0 -0 -0 -0 -0 -0 -0 -0 -0 -0 -0 0 0 0 0 0 0 0 0 -0 -0 -0 0 0 0 0 0 0 0 0 0 0 0 0 0 0 0 0
0 0 0 0 0 -0 -0 0 0 0 0 -0 -0 -0 -0 -0 -0 -0 -0 -0 -0 -0 0 0 0 0 0 0 0 0 0 0 0 0 0 0 0 0 0 0 0 0 0 0 0 0 0 0 0
0 0 0 0 0 0 0 0 0 -0 0 -0 -0 -0 -0 -0 -0 -0 -0 -0 -0 -0 -0 -0 0 0 0 0 0 0 0 0 0 0 0 0 0 0 0 0 0 0 0 0 0 0 0 0 0
Wind_Speed_500mb
13 9 5 4 6 9 5 10 1 6 4 7 2 6 8 5 5 7 20 15 12 17 23 25 26 28 29 30 36 43 46 47 45 39 32 29 25 21 20 25 29 29 31 34 34 33 32 32 32
8 5 1 5 8 5 9 7 9 12 11 8 20 27 4 2 3 11 19 12 15 26 34 28 26 31 31 32 37 45 50 54 47 42 36 34 33 30 26 24 29 30 28 31 36 33 32 35 34
7 5 2 7 7 10 11 10 16 13 19 25 10 3 6 7 12 10 13 14 25 29 21 18 25 30 33 38 43 46 51 53 49 42 40 36 36 34 33 29 29 33 29 31 33 33 32 34 35
4 0 4 6 9 12 12 14 16 5 13 21 20 11 7 7 4 3 13 20 25 22 24 23 22 22 29 32 39 46 49 51 53 49 37 33 36 41 40 36 32 31 33 32 37 34 31 34 35
7 0 6 7 9 8 7 16 26 10 6 9 23 11 10 7 4 8 11 13 19 25 23 19 20 27 31 34 40 47 50 46 40 41 37 33 29 31 40 47 43 33 35 35 37 37 37 34 34
5 5 6 7 10 7 3 17 35 13 10 10 10 11 7 7 5 0 6 14 16 14 14 19 21 21 30 42 46 53 48 48 43 47 40 37 37 36 33 38 41 38 35 39 42 42 39 35 35
11 7 8 10 9 1 8 17 18 14 17 6 21 7 10 12 11 9 8 10 10 13 17 21 28 40 45 49 51 52 47 48 47 45 47 47 50 44 40 36 42 40 36 42 45 46 43 39 35
9 9 5 7 11 10 10 19 17 25 9 18 19 11 9 23 17 8 7 12 15 20 23 30 39 40 46 53 56 51 50 49 49 52 52 52 51 52 49 43 43 39 40 43 48 48 45 41 36
11 6 6 11 17 12 17 10 22 10 19 9 8 15 25 24 14 10 15 19 18 22 28 31 35 40 52 55 44 43 37 39 46 48 52 57 61 65 66 57 43 39 40 42 48 47 44 40 37
8 7 13 11 9 13 26 19 27 13 21 11 28 30 25 17 11 16 17 19 24 25 32 37 37 45 46 44 41 36 28 20 30 44 40 40 50 54 46 44 40 38 37 42 43 46 42 40 40
8 12 13 10 15 22 21 16 17 40 4 30 44 33 24 13 9 10 14 21 27 31 35 35 37 37 40 39 36 31 17 16 26 22 18 18 19 29 35 38 40 37 37 43 43 45 42 43 42
6 38 27 20 14 22 19 24 13 22 21 38 30 30 23 14 2 9 19 24 29 35 37 34 28 34 33 28 31 17 13 12 15 11 6 1 10 21 27 32 31 27 35 37 42 43 44 45 44
7 8 17 24 26 24 24 14 13 21 30 34 35 33 23 10 2 12 17 28 27 36 31 32 27 28 27 27 28 26 13 14 10 4 8 9 15 23 26 27 27 25 29 36 41 42 44 45 50
12 16 19 22 22 25 16 8 16 23 35 37 38 34 20 7 1 7 17 28 28 35 30 31 28 26 26 20 27 22 15 10 3 6 10 11 15 18 19 20 20 22 26 30 35 39 44 48 55
11 7 10 7 18 11 13 5 16 34 41 41 39 31 22 11 4 8 18 23 27 34 26 27 23 25 25 20 25 19 12 10 9 11 9 15 10 8 12 15 20 21 25 27 33 40 48 52 61
5 8 6 10 11 5 14 18 9 39 52 44 40 35 26 16 4 8 13 16 26 29 24 27 26 27 23 20 19 16 15 10 13 11 11 11 10 11 13 18 19 22 27 31 39 47 55 61 68
11 8 9 10 22 6 7 14 7 49 54 46 47 40 29 21 13 9 8 13 24 23 23 30 28 29 26 20 19 16 14 11 6 6 5 6 4 9 12 17 18 17 25 35 45 55 58 71 72
10 10 9 11 9 12 13 20 7 49 53 47 52 42 33 23 15 12 5 10 19 22 21 27 25 28 23 24 19 17 15 16 15 10 7 9 1 9 15 19 25 19 29 51 58 65 67 75 76
9 8 15 7 8 12 23 17 20 35 27 32 51 45 36 26 19 15 7 6 14 23 15 24 24 27 24 20 20 15 15 19 15 8 12 12 8 5 24 22 30 38 47 55 72 64 81 75 77
10 13 14 13 9 16 13 24 9 19 33 39 55 50 43 33 28 21 12 4 8 21 11 14 21 29 36 27 18 23 23 22 17 18 14 22 28 43 46 38 32 37 50 60 66 73 88 87 90
13 9 10 15 9 5 6 13 6 9 26 28 52 55 46 40 34 28 20 8 2 13 19 13 16 21 30 37 23 26 27 27 22 23 17 25 28 25 28 26 38 33 45 57 67 69 70 80 79
13 16 19 10 6 11 10 10 9 8 21 19 47 56 53 44 34 31 25 11 3 5 18 13 20 20 23 27 25 25 30 32 43 34 34 40 31 37 33 31 32 28 37 44 53 58 64 68 76
22 19 20 10 10 3 1 7 13 5 13 19 36 64 59 48 39 37 29 13 7 5 11 13 16 17 22 22 27 32 40 30 32 33 32 23 26 26 25 30 24 27 38 32 37 53 68 54 47
26 2 12 8 6 3 12 11 10 9 16 11 27 55 63 54 43 37 28 18 14 13 2 10 9 11 18 21 22 26 32 35 33 29 29 34 21 18 26 25 33 33 30 31 39 45 58 32 38
8 10 6 7 7 11 2 5 16 18 22 20 40 60 69 59 50 48 40 27 23 15 14 5 3 5 10 14 18 22 26 26 29 29 27 27 25 31 45 31 30 48 32 31 42 43 44 34 31
17 20 12 14 9 17 7 9 13 12 24 35 55 71 71 63 54 53 45 31 26 19 14 16 4 4 6 8 13 15 18 21 29 35 31 31 36 34 41 37 36 35 35 34 39 37 31 37 28
11 8 15 10 5 5 7 12 18 5 11 23 35 53 72 69 60 56 49 34 29 29 14 20 14 4 10 5 4 4 8 18 27 29 31 31 37 47 45 39 37 40 31 32 30 28 23 29 31
16 10 5 4 7 12 7 7 11 11 8 9 19 41 65 70 61 58 51 35 32 30 20 23 19 8 12 10 8 3 9 16 25 28 31 29 32 32 39 38 35 35 38 40 37 48 50 49 47
3 5 8 9 8 11 2 12 15 15 16 31 31 64 81 78 67 61 54 37 33 29 26 25 23 13 14 15 15 12 12 15 19 31 32 34 30 28 33 35 36 36 37 34 35 40 45 47 44
11 19 16 10 8 5 8 13 8 8 17 26 39 65 79 77 69 63 55 44 40 35 29 22 28 20 13 12 13 17 19 18 19 33 33 31 35 35 38 38 38 42 41 40 39 39 37 35 38
Wind_Direction_500mb
120 122 81 109 74 69 253 249 247 210 253 235 184 170 163 98 153 214 157 188 218 254 276 278 267 276 281 285 298 305 307 309 308 304 284 260 253 251 240 243 248 250 247 242 234 232 229 228 221
141 145 198 109 90 91 255 246 235 223 209 168 136 126 85 88 153 160 165 206 270 291 297 292 288 294 299 301 307 308 306 307 306 302 285 261 250 252 248 244 243 248 247 242 236 232 226 226 227
175 172 209 109 118 189 211 193 217 233 190 164 147 63 133 141 156 178 217 297 310 310 310 300 300 302 298 297 298 298 299 301 301 297 290 264 250 251 252 254 248 246 243 240 237 234 227 220 225
147 175 81 94 231 246 198 197 200 204 215 184 156 101 120 165 177 279 314 328 326 324 313 297 287 288 293 291 288 291 293 294 291 289 277 262 248 249 251 250 252 257 241 233 238 229 226 223 217
174 108 47 316 264 257 214 188 180 196 224 216 177 156 141 116 11 349 354 329 303 300 294 280 288 291 284 284 293 297 296 289 279 271 258 253 243 258 254 250 248 252 247 235 226 226 226 223 214
137 115 63 269 262 278 264 177 179 203 225 167 117 106 146 140 83 224 314 307 297 300 309 302 297 293 299 305 304 307 291 280 275 265 261 251 255 255 257 258 251 245 244 229 220 220 221 220 213
145 104 219 245 265 176 230 182 177 176 162 224 148 113 155 172 178 192 273 303 322 331 332 324 315 313 310 308 300 303 290 283 277 268 263 259 258 257 250 273 257 239 243 219 219 213 212 213 211
191 110 198 221 215 221 215 170 193 165 180 129 194 172 188 168 173 206 274 313 331 334 326 323 315 310 306 305 304 295 284 276 266 266 267 261 260 262 261 269 255 233 232 223 214 209 209 209 210
214 75 252 242 167 224 189 153 167 165 145 120 164 154 160 169 181 236 307 314 323 330 319 327 315 307 308 307 308 305 287 271 265 266 268 265 256 256 257 258 242 231 221 218 209 206 206 205 205
139 137 235 209 229 202 183 172 162 133 129 101 123 142 159 173 225 313 334 344 343 337 333 326 316 314 320 316 314 315 306 295 296 293 277 261 250 246 235 231 228 219 216 208 201 199 200 201 200
204 225 200 264 221 198 174 194 163 132 213 176 166 167 174 204 286 342 4 4 359 347 334 329 325 329 329 327 323 313 295 305 304 301 278 260 227 210 215 214 209 205 208 198 195 194 196 196 196
255 266 232 192 205 162 172 189 162 164 206 186 186 183 187 208 202 24 13 8 1 346 342 338 331 339 339 348 347 335 314 324 343 345 326 330 192 189 195 197 196 198 198 190 191 195 195 193 194
216 239 183 163 159 178 170 186 180 203 165 171 176 184 187 185 51 13 23 16 359 352 356 347 335 343 349 359 0 8 2 349 353 40 92 117 146 165 182 189 190 185 191 189 190 196 194 192 188
237 195 178 176 173 160 144 177 167 181 162 172 182 182 183 189 24 34 26 14 0 359 357 354 348 344 350 348 356 359 3 10 38 153 142 139 153 168 172 183 183 181 186 192 192 197 191 186 183
193 111 347 242 187 188 150 197 231 195 176 179 182 181 179 175 118 30 35 9 3 2 4 2 8 7 4 8 7 13 10 43 76 130 136 136 143 177 185 192 186 189 189 188 195 190 181 180 174
165 84 186 256 155 243 156 261 253 188 181 187 183 183 181 170 135 77 51 14 8 15 14 10 14 13 12 13 15 32 31 74 94 118 156 170 198 220 197 194 186 189 189 195 184 174 174 173 171
358 251 227 296 192 143 170 258 262 186 190 191 188 184 179 162 150 119 68 18 16 29 19 17 31 28 26 22 27 31 28 40 72 108 148 222 237 212 193 189 184 171 196 182 176 170 171 169 167
246 274 264 259 216 188 201 249 277 191 198 194 192 186 181 171 161 148 107 26 23 33 20 19 23 19 24 24 32 36 35 49 62 70 71 70 219 206 174 174 172 175 182 160 158 166 167 166 168
222 236 257 246 245 182 225 224 231 197 207 190 191 190 185 176 156 158 146 44 32 29 21 23 35 34 30 24 36 46 53 66 70 71 77 81 41 2 165 163 154 153 168 162 159 167 166 160 165
237 253 273 283 245 178 254 245 216 188 216 203 188 195 189 175 169 171 169 128 39 25 27 24 40 49 46 40 55 58 69 68 70 74 83 67 96 93 117 133 122 158 160 160 165 159 153 143 149
258 231 249 236 338 234 127 302 209 219 209 206 201 203 192 185 177 178 175 173 58 27 26 35 45 57 45 41 61 75 71 70 77 88 86 93 97 103 114 108 135 153 156 148 153 163 157 150 152
267 236 247 249 157 236 141 257 293 230 209 190 188 199 195 189 183 179 176 181 144 39 24 82 78 59 54 50 62 82 75 80 76 88 90 105 100 103 104 124 108 113 147 150 155 156 160 157 152
249 240 233 229 206 143 301 87 265 119 218 227 199 199 197 191 187 182 181 185 135 164 29 112 83 55 68 80 72 76 78 64 74 71 79 116 142 135 120 140 128 111 113 127 153 163 146 139 147
245 261 48 45 87 34 233 151 285 225 211 207 195 199 195 190 188 186 181 179 164 186 145 130 103 66 76 84 84 77 79 79 80 85 91 94 124 182 177 142 140 128 129 130 134 142 148 109 130
115 83 289 334 346 220 264 111 229 250 238 199 187 193 194 189 189 186 185 183 182 190 196 192 156 89 86 82 90 88 80 84 84 89 93 92 98 116 123 119 146 142 126 136 156 152 159 152 141
204 184 172 213 226 260 188 230 255 231 282 239 196 192 186 187 191 190 190 187 185 193 187 213 198 159 130 110 93 86 83 96 97 99 94 98 86 110 123 123 124 126 123 128 146 146 155 138 167
221 177 204 131 354 44 255 298 319 24 38 118 152 169 183 188 192 193 192 191 187 201 203 219 215 219 179 172 151 99 73 119 121 114 107 100 96 105 108 115 122 126 128 135 138 151 128 123 144
166 175 87 0 177 251 275 267 246 271 176 150 158 175 184 188 192 195 191 191 192 206 214 228 220 240 190 203 210 196 133 124 135 132 125 119 114 109 113 114 119 124 128 125 116 123 122 119 117
205 157 56 125 138 189 194 263 221 247 198 200 187 182 189 189 193 195 191 190 190 195 206 229 216 203 191 187 193 191 165 143 137 146 134 133 131 127 135 130 126 133 136 138 135 132 131 126 123
177 187 155 172 226 153 158 262 29 277 214 202 200 187 191 191 193 196 192 190 193 197 205 221 212 205 188 171 180 185 183 174 153 155 145 139 140 134 143 139 135 130 138 138 138 138 142 141 137
Wind_Speed_850mb
13 9 5 4 6 9 5 10 1 6 4 7 2 6 8 5 5 7 20 15 12 17 23 25 26 28 29 30 36 43 46 47 45 39 32 29 25 21 20 25 29 29 31 34 34 33 32 32 32
8 5 1 5 8 5 9 7 9 12 11 8 20 27 4 2 3 11 19 12 15 26 34 28 26 31 31 32 37 45 50 54 47 42 36 34 33 30 26 24 29 30 28 31 36 33 32 35 34
7 5 2 7 7 10 11 10 16 13 19 25 10 3 6 7 12 10 13 14 25 29 21 18 25 30 33 38 43 46 51 53 49 42 40 36 36 34 33 29 29 33 29 31 33 33 32 34 35
4 0 4 6 9 12 12 14 16 5 13 21 20 11 7 7 4 3 13 20 25 22 24 23 22 22 29 32 39 46 49 51 53 49 37 33 36 41 40 36 32 31 33 32 37 34 31 34 35
7 0 6 7 9 8 7 16 26 10 6 9 23 11 10 7 4 8 11 13 19 25 23 19 20 27 31 34 40 47 50 46 40 41 37 33 29 31 40 47 43 33 35 35 37 37 37 34 34
5 5 6 7 10 7 3 17 35 13 10 10 10 11 7 7 5 0 6 14 16 14 14 19 21 21 30 42 46 53 48 48 43 47 40 37 37 36 33 38 41 38 35 39 42 42 39 35 35
11 7 8 10 9 1 8 17 18 14 17 6 21 7 10 12 11 9 8 10 10 13 17 21 28 40 45 49 51 52 47 48 47 45 47 47 50 44 40 36 42 40 36 42 45 46 43 39 35
9 9 5 7 11 10 10 19 17 25 9 18 19 11 9 23 17 8 7 12 15 20 23 30 39 40 46 53 56 51 50 49 49 52 52 52 51 52 49 43 43 39 40 43 48 48 45 41 36
11 6 6 11 17 12 17 10 22 10 19 9 8 15 25 24 14 10 15 19 18 22 28 31 35 40 52 55 44 43 37 39 46 48 52 57 61 65 66 57 43 39 40 42 48 47 44 40 37
8 7 13 11 9 13 26 19 27 13 21 11 28 30 25 17 11 16 17 19 24 25 32 37 37 45 46 44 41 36 28 20 30 44 40 40 50 54 46 44 40 38 37 42 43 46 42 40 40
8 12 13 10 15 22 21 16 17 40 4 30 44 33 24 13 9 10 14 21 27 31 35 35 37 37 40 39 36 31 17 16 26 22 18 18 19 29 35 38 40 37 37 43 43 45 42 43 42
6 38 27 20 14 22 19 24 13 22 21 38 30 30 23 14 2 9 19 24 29 35 37 34 28 34 33 28 31 17 13 12 15 11 6 1 10 21 27 32 31 27 35 37 42 43 44 45 44
7 8 17 24 26 24 24 14 13 21 30 34 35 33 23 10 2 12 17 28 27 36 31 32 27 28 27 27 28 26 13 14 10 4 8 9 15 23 26 27 27 25 29 36 41 42 44 45 50
12 16 19 22 22 25 16 8 16 23 35 37 38 34 20 7 1 7 17 28 28 35 30 31 28 26 26 20 27 22 15 10 3 6 10 11 15 18 19 20 20 22 26 30 35 39 44 48 55
11 7 10 7 18 11 13 5 16 34 41 41 39 31 22 11 4 8 18 23 27 34 26 27 23 25 25 20 25 19 12 10 9 11 9 15 10 8 12 15 20 21 25 27 33 40 48 52 61
5 8 6 10 11 5 14 18 9 39 52 44 40 35 26 16 4 8 13 16 26 29 24 27 26 27 23 20 19 16 15 10 13 11 11 11 10 11 13 18 19 22 27 31 39 47 55 61 68
11 8 9 10 22 6 7 14 7 49 54 46 47 40 29 21 13 9 8 13 24 23 23 30 28 29 26 20 19 16 14 11 6 6 5 6 4 9 12 17 18 17 25 35 45 55 58 71 72
10 10 9 11 9 12 13 20 7 49 53 47 52 42 33 23 15 12 5 10 19 22 21 27 25 28 23 24 19 17 15 16 15 10 7 9 1 9 15 19 25 19 29 51 58 65 67 75 76
9 8 15 7 8 12 23 17 20 35 27 32 51 45 36 26 19 15 7 6 14 23 15 24 24 27 24 20 20 15 15 19 15 8 12 12 8 5 24 22 30 38 47 55 72 64 81 75 77
10 13 14 13 9 16 13 24 9 19 33 39 55 50 43 33 28 21 12 4 8 21 11 14 21 29 36 27 18 23 23 22 17 18 14 22 28 43 46 38 32 37 50 60 66 73 88 87 90
13 9 10 15 9 5 6 13 6 9 26 28 52 55 46 40 34 28 20 8 2 13 19 13 16 21 30 37 23 26 27 27 22 23 17 25 28 25 28 26 38 33 45 57 67 69 70 80 79
13 16 19 10 6 11 10 10 9 8 21 19 47 56 53 44 34 31 25 11 3 5 18 13 20 20 23 27 25 25 30 32 43 34 34 40 31 37 33 31 32 28 37 44 53 58 64 68 76
22 19 20 10 10 3 1 7 13 5 13 19 36 64 59 48 39 37 29 13 7 5 11 13 16 17 22 22 27 32 40 30 32 33 32 23 26 26 25 30 24 27 38 32 37 53 68 54 47
26 2 12 8 6 3 12 11 10 9 16 11 27 55 63 54 43 37 28 18 14 13 2 10 9 11 18 21 22 26 32 35 33 29 29 34 21 18 26 25 33 33 30 31 39 45 58 32 38
8 10 6 7 7 11 2 5 16 18 22 20 40 60 69 59 50 48 40 27 23 15 14 5 3 5 10 14 18 22 26 26 29 29 27 27 25 31 45 31 30 48 32 31 42 43 44 34 31
17 20 12 14 9 17 7 9 13 12 24 35 55 71 71 63 54 53 45 31 26 19 14 16 4 4 6 8 13 15 18 21 29 35 31 31 36 34 41 37 36 35 35 34 39 37 31 37 28
11 8 15 10 5 5 7 12 18 5 11 23 35 53 72 69 60 56 49 34 29 29 14 20 14 4 10 5 4 4 8 18 27 29 31 31 37 47 45 39 37 40 31 32 30 28 23 29 31
16 10 5 4 7 12 7 7 11 11 8 9 19 41 65 70 61 58 51 35 32 30 20 23 19 8 12 10 8 3 9 16 25 28 31 29 32 32 39 38 35 35 38 40 37 48 50 49 47
3 5 8 9 8 11 2 12 15 15 16 31 31 64 81 78 67 61 54 37 33 29 26 25 23 13 14 15 15 12 12 15 19 31 32 34 30 28 33 35 36 36 37 34 35 40 45 47 44
11 19 16 10 8 5 8 13 8 8 17 26 39 65 79 77 69 63 55 44 40 35 29 22 28 20 13 12 13 17 19 18 19 33 33 31 35 35 38 38 38 42 41 40 39 39 37 35 38
Wind_Direction_850mb
120 122 81 109 74 69 253 249 247 210 253 235 184 170 163 98 153 214 157 188 218 254 276 278 267 276 281 285 298 305 307 309 308 304 284 260 253 251 240 243 248 250 247 242 234 232 229 228 221
141 145 198 109 90 91 255 246 235 223 209 168 136 126 85 88 153 160 165 206 270 291 297 292 288 294 299 301 307 308 306 307 306 302 285 261 250 252 248 244 243 248 247 242 236 232 226 226 227
175 172 209 109 118 189 211 193 217 233 190 164 147 63 133 141 156 178 217 297 310 310 310 300 300 302 298 297 298 298 299 301 301 297 290 264 250 251 252 254 248 246 243 240 237 234 227 220 225
147 175 81 94 231 246 198 197 200 204 215 184 156 101 120 165 177 279 314 328 326 324 313 297 287 288 293 291 288 291 293 294 291 289 277 262 248 249 251 250 252 257 241 233 238 229 226 223 217
174 108 47 316 264 257 214 188 180 196 224 216 177 156 141 116 11 349 354 329 303 300 294 280 288 291 284 284 293 297 296 289 279 271 258 253 243 258 254 250 248 252 247 235 226 226 226 223 214
137 115 63 269 262 278 264 177 179 203 225 167 117 106 146 140 83 224 314 307 297 300 309 302 297 293 299 305 304 307 291 280 275 265 261 251 255 255 257 258 251 245 244 229 220 220 221 220 213
145 104 219 245 265 176 230 182 177 176 162 224 148 113 155 172 178 192 273 303 322 331 332 324 315 313 310 308 300 303 290 283 277 268 263 259 258 257 250 273 257 239 243 219 219 213 212 213 211
191 110 198 221 215 221 215 170 193 165 180 129 194 172 188 168 173 206 274 313 331 334 326 323 315 310 306 305 304 295 284 276 266 266 267 261 260 262 261 269 255 233 232 223 214 209 209 209 210
214 75 252 242 167 224 189 153 167 165 145 120 164 154 160 169 181 236 307 314 323 330 319 327 315 307 308 307 308 305 287 271 265 266 268 265 256 256 257 258 242 231 221 218 209 206 206 205 205
139 137 235 209 229 202 183 172 162 133 129 101 123 142 159 173 225 313 334 344 343 337 333 326 316 314 320 316 314 315 306 295 296 293 277 261 250 246 235 231 228 219 216 208 201 199 200 201 200
204 225 200 264 221 198 174 194 163 132 213 176 166 167 174 204 286 342 4 4 359 347 334 329 325 329 329 327 323 313 295 305 304 301 278 260 227 210 215 214 209 205 208 198 195 194 196 196 196
255 266 232 192 205 162 172 189 162 164 206 186 186 183 187 208 202 24 13 8 1 346 342 338 331 339 339 348 347 335 314 324 343 345 326 330 192 189 195 197 196 198 198 190 191 195 195 193 194
216 239 183 163 159 178 170 186 180 203 165 171 176 184 187 185 51 13 23 16 359 352 356 347 335 343 349 359 0 8 2 349 353 40 92 117 146 165 182 189 190 185 191 189 190 196 194 192 188
237 195 178 176 173 160 144 177 167 181 162 172 182 182 183 189 24 34 26 14 0 359 357 354 348 344 350 348 356 359 3 10 38 153 142 139 153 168 172 183 183 181 186 192 192 197 191 186 183
193 111 347 242 187 188 150 197 231 195 176 179 182 181 179 175 118 30 35 9 3 2 4 2 8 7 4 8 7 13 10 43 76 130 136 136 143 177 185 192 186 189 189 188 195 190 181 180 174
165 84 186 256 155 243 156 261 253 188 181 187 183 183 181 170 135 77 51 14 8 15 14 10 14 13 12 13 15 32 31 74 94 118 156 170 198 220 197 194 186 189 189 195 184 174 174 173 171
358 251 227 296 192 143 170 258 262 186 190 191 188 184 179 162 150 119 68 18 16 29 19 17 31 28 26 22 27 31 28 40 72 108 148 222 237 212 193 189 184 171 196 182 176 170 171 169 167
246 274 264 259 216 188 201 249 277 191 198 194 192 186 181 171 161 148 107 26 23 33 20 19 23 19 24 24 32 36 35 49 62 70 71 70 219 206 174 174 172 175 182 160 158 166 167 166 168
222 236 257 246 245 182 225 224 231 197 207 190 191 190 185 176 156 158 146 44 32 29 21 23 35 34 30 24 36 46 53 66 70 71 77 81 41 2 165 163 154 153 168 162 159 167 166 160 165
237 253 273 283 245 178 254 245 216 188 216 203 188 195 189 175 169 171 169 128 39 25 27 24 40 49 46 40 55 58 69 68 70 74 83 67 96 93 117 133 122 158 160 160 165 159 153 143 149
258 231 249 236 338 234 127 302 209 219 209 206 201 203 192 185 177 178 175 173 58 27 26 35 45 57 45 41 61 75 71 70 77 88 86 93 97 103 114 108 135 153 156 148 153 163 157 150 152
267 236 247 249 157 236 141 257 293 230 209 190 188 199 195 189 183 179 176 181 144 39 24 82 78 59 54 50 62 82 75 80 76 88 90 105 100 103 104 124 108 113 147 150 155 156 160 157 152
249 240 233 229 206 143 301 87 265 119 218 227 199 199 197 191 187 182 181 185 135 164 29 112 83 55 68 80 72 76 78 64 74 71 79 116 142 135 120 140 128 111 113 127 153 163 146 139 147
245 261 48 45 87 34 233 151 285 225 211 207 195 199 195 190 188 186 181 179 164 186 145 130 103 66 76 84 84 77 79 79 80 85 91 94 124 182 177 142 140 128 129 130 134 142 148 109 130
115 83 289 334 346 220 264 111 229 250 238 199 187 193 194 189 189 186 185 183 182 190 196 192 156 89 86 82 90 88 80 84 84 89 93 92 98 116 123 119 146 142 126 136 156 152 159 152 141
204 184 172 213 226 260 188 230 255 231 282 239 196 192 186 187 191 190 190 187 185 193 187 213 198 159 130 110 93 86 83 96 97 99 94 98 86 110 123 123 124 126 123 128 146 146 155 138 167
221 177 204 131 354 44 255 298 319 24 38 118 152 169 183 188 192 193 192 191 187 201 203 219 215 219 179 172 151 99 73 119 121 114 107 100 96 105 108 115 122 126 128 135 138 151 128 123 144
166 175 87 0 177 251 275 267 246 271 176 150 158 175 184 188 192 195 191 191 192 206 214 228 220 240 190 203 210 196 133 124 135 132 125 119 114 109 113 114 119 124 128 125 116 123 122 119 117
205 157 56 125 138 189 194 263 221 247 198 200 187 182 189 189 193 195 191 190 190 195 206 229 216 203 191 187 193 191 165 143 137 146 134 133 131 127 135 130 126 133 136 138 135 132 131 126 123
177 187 155 172 226 153 158 262 29 277 214 202 200 187 191 191 193 196 192 190 193 197 205 221 212 205 188 171 180 185 183 174 153 155 145 139 140 134 143 139 135 130 138 138 138 138 142 141 137